Regional Weather Roundup
Issued by NWS

Home | Current Version | Previous Version | Text Only | Print | Product List | Glossary Off
Versions: 1 2 3 4 5 6 7 8 9 10 11 12 13 14 15 16 17 18 19 20 21 22 23 24 25 26 27 28 29 30 31 32 33 34 35 36 37 38 39 40 41 42 43 44 45 46 47 48 49 50

000
ASUS43 KMKX 020038
RWRWI

WISCONSIN REGIONAL WEATHER ROUNDUP
NATIONAL WEATHER SERVICE MILWAUKEE/SULLIVAN WI
800 PM CDT MON JUN 01 2015

NOTE: "FAIR" INDICATES FEW OR NO CLOUDS BELOW 12,000 FEET WITH NO
SIGNIFICANT WEATHER AND/OR OBSTRUCTIONS TO VISIBILITY.

WIZ001-002-006>008-014>016-023>028-020200-
NORTHWEST WISCONSIN

CITY           SKY/WX    TMP DP  RH WIND       PRES   REMARKS
SUPERIOR ARPT  MOCLDY    46  32  57 NE10G18   30.19S
ASHLAND        CLEAR     53  41  63 N8        30.20R
HAYWARD        CLEAR     66  37  34 SE10      30.17S
SIREN          PTCLDY    68  38  33 S9        30.15S
CUMBERLAND     CLEAR     63  43  48 S7        30.16S
RICE LAKE      CLEAR     67  38  33 S9        30.18S
CHETEK         CLEAR     67  42  41 SE8       30.17S
LADYSMITH      CLEAR     65  40  39 S9G16     30.20S
EAU CLAIRE     CLEAR     67  40  37 SE8       30.16S
MENOMONIE      CLEAR     67  39  35 SE8       30.17S
NEW RICHMOND   PTCLDY    66  40  38 S10       30.16S
OSCEOLA        MOCLDY    68  40  36 S13       30.17S
$$

WIZ003>005-009-010-017-018-020200-
NORTH CENTRAL WISCONSIN

CITY           SKY/WX    TMP DP  RH WIND       PRES   REMARKS
MANITOWISH WTR CLEAR     65  36  34 S8        30.19R
ARBOR VITAE    CLEAR     64  30  27 S10G16    30.19S
WOODRUFF       CLEAR     64  30  27 S10G16    30.19S
RHINELANDER    CLEAR     64  28  25 S7        30.21S
EAGLE RIVER    CLEAR     64  22  20 S7        30.20S
LAND O LAKES   CLEAR     66  25  21 S3        30.20S
PHILLIPS       PTCLDY    65  38  38 S9        30.18S
TOMAHAWK       CLEAR     63  32  32 S3        30.21S
MEDFORD        CLEAR     61  40  45 SE6       30.20S
MERRILL        CLEAR     64  37  37 SE7       30.22S
$$

WIZ029-030-035-036-043>047-020200-
CENTRAL WISCONSIN

CITY           SKY/WX    TMP DP  RH WIND       PRES   REMARKS
WAUSAU         CLEAR     64  34  32 SE7       30.19F
MOSINEE        CLEAR     63  36  36 SE6       30.22F
MARSHFIELD     CLEAR     65  35  33 SE8       30.20S
STEVENS POINT  CLEAR     62  34  35 E10       30.21F
WAUPACA        CLEAR     65  33  30 E6        30.22F
WAUTOMA        PTCLDY    64  33  31 E9        30.22F
WISC RAPIDS    CLEAR     65  29  25 SE8       30.21F
CAMP DOUGLAS   PTCLDY    66  41  39 SE10      30.18F
$$

WIZ011>013-019>022-031-037>040-048>050-020200-
NORTHEAST WISCONSIN

CITY           SKY/WX    TMP DP  RH WIND       PRES   REMARKS
ANTIGO         CLEAR     60  40  47 S8        30.22S
SHAWANO        CLEAR     64  38  38 E7        30.23S
OCONTO         CLEAR     60  36  40 E5        30.23F
STURGEON BAY   CLEAR     57  30  35 NE5       30.26F
GREEN BAY      CLEAR     61  41  47 NE10      30.23F
MANITOWOC      CLEAR     57  34  41 NE8       30.24S
APPLETON       PTCLDY    63  30  29 E7        30.23S
CLINTONVILLE   CLEAR     63  36  36 SE6       30.23S
OSHKOSH        CLEAR     62  35  36 NE8       30.22S
$$

WIZ032>034-041-042-053>061-020200-
SOUTHWEST WISCONSIN

CITY           SKY/WX    TMP DP  RH WIND       PRES   REMARKS
LA CROSSE      CLEAR     70  35  27 E7        30.16S
SPARTA         CLEAR     67  35  29 E9        30.19R
VIROQUA        CLEAR     66  36  32 E9        30.19R
BOSCOBEL       CLEAR     69  36  29 CALM      30.17F
PRAIRIE DU CHI CLEAR     67  33  28 SE6       30.16S
PLATTEVILLE    CLEAR     67  40  38 E7        30.17F
$$

WIZ056-057-062-063-064-067-068-020200-
SOUTH CENTRAL WISCONSIN

CITY           SKY/WX    TMP DP  RH WIND       PRES   REMARKS
REEDSBURG      CLEAR     64  33  31 SE7       30.19S
BARABOO/DELLS  CLEAR     64  32  30 SE6       30.20R
LONE ROCK      CLEAR     68  30  24 E10       30.19S
MINERAL POINT  CLEAR     66  32  28 E7        30.19S
MADISON        PTCLDY    63  29  27 E10       30.20S
MIDDLETON      CLEAR     65  27  23 SE9       30.20S
WATERTOWN      CLEAR     61  33  34 E7        30.21S
MONROE         CLEAR     63  34  34 E8        30.19R
JANESVILLE     CLEAR     64  30  27 E12       30.20R
$$

WIZ051-052-058>065-066-070>072-020200-
SOUTHEAST WISCONSIN

CITY           SKY/WX    TMP DP  RH WIND       PRES   REMARKS
MILWAUKEE      PTCLDY    53  33  46 N13       30.23S
WAUKESHA       CLEAR     55  32  41 E8        30.23S
MILWAUKEE/TIMM CLEAR     55  30  38 NE10      30.23F
RACINE         CLEAR     52  35  52 N12       30.25R
BURLINGTON     CLEAR     56  33  40 NE8       30.22S
KENOSHA        CLEAR     55  34  45 NE12      30.22S
FOND DU LAC    CLEAR     62  35  36 E8        30.22S
SHEBOYGAN      CLEAR     56  37  49 NE10      30.23F
WEST BEND      CLEAR     59  34  38 E8        30.23S
JUNEAU         CLEAR     61  35  36 E8        30.22S
$$

LSZ147-162-020200-
LAKE SUPERIOR

STATION/POSITION TIME  TEMP    WIND        PRES    WAVE
                       AIR SEA DIR/SP/G            HT/PER
                 (UTC) (F)     (DEG/KT/KT) (MB)    (FT/S)
W MID LAKE BUOY  2350   40 37   40/ 10/ 10   N/A     0
DEVILS ISLAND    0000   44      80/ 12/ 13   N/A
PORT WING        2340   47      40/ 17/ 20   N/A
$$

LMZ867-665-643>646-020200-
LAKE MICHIGAN

STATION/POSITION TIME  TEMP    WIND        PRES    WAVE
                       AIR SEA DIR/SP/G            HT/PER
                 (UTC) (F)     (DEG/KT/KT) (MB)    (FT/S)
CHAMBERS ISLAND  2300   60      CALM  /  3   N/A
N MID LAKE BUOY  2350   47 37  310/  6/  6   N/A     0
NORTHPORT PIER   2300   59      CALM  /  2   N/A
SISTER BAY       2303   60     130/  8/ 10   N/A
ALGOMA LAKESHORE 2309           60/  8/ 10   N/A
KEWAUNEE LAKESHO 0000   53      30/  6/ 10   N/A
SHEBOYGAN LAKESH 0000   49      20/ 10/ 10   N/A
PORT WASHINGTON  2340   52      40/  8/ 10   N/A
ATWATER BUOY     0000   47     350/  6/  8   N/A
MILWAUKEE LAKESH 0000   50      20/ 12/ 14   N/A
S MID LAKE BUOY  2350   42 38  350/ 12/ 14   N/A     1/ 3
KENOSHA   LAKESH 0000   50      10/ 16/ 18   N/A
$$

TC  - TEMPERATURE IN CELSIUS
VSB - VISIBILITY IN STATUTE MILES
WCI - WIND CHILL INDEX
HX  - HEAT INDEX



USA.gov is the U.S. government's official web portal to all federal, state and local government web resources and services.